Preview of NWS' New Version of Forecast
This preview is not operational and should not be used for support decisions.

Regional Weather Roundup (RWR)

Issued by National Weather Service (NWS)

                            
000
ASUS43 KMKX 190000
RWRWI 

WISCONSIN REGIONAL WEATHER ROUNDUP
NATIONAL WEATHER SERVICE MILWAUKEE/SULLIVAN WI
600 PM CST MON FEB 18 2019

NOTE: "FAIR" INDICATES FEW OR NO CLOUDS BELOW 12,000 FEET WITH NO
SIGNIFICANT WEATHER AND/OR OBSTRUCTIONS TO VISIBILITY.

WIZ001-002-006>008-014>016-023>028-190100-
NORTHWEST WISCONSIN
  
CITY           SKY/WX    TMP DP  RH WIND       PRES   REMARKS
SUPERIOR ARPT  FAIR      13  -2  51 CALM      30.47R                  
6HR MIN TEMP:  11; 6HR MAX TEMP:  20;                                

ASHLAND        FAIR      11   1  64 N5        30.47R WCI   3          
6HR MIN TEMP:   6; 6HR MAX TEMP:  18;                                

HAYWARD        FAIR      12   2  64 CALM      30.43R                  
6HR MIN TEMP:  11; 6HR MAX TEMP:  21;                                

SIREN          FAIR      14   2  58 SW5       30.46S WCI   7          
CUMBERLAND     FAIR      12  -2  52 W5        30.44R WCI   4          
RICE LAKE      FAIR      15   2  56 CALM      30.46R                  
6HR MIN TEMP:  15; 6HR MAX TEMP:  19;                                

CHETEK         FAIR      13   4  66 CALM      30.46R                  
6HR MIN TEMP:  13; 6HR MAX TEMP:  20;                                

LADYSMITH      FAIR      12  -1  55 CALM      30.44R                  
6HR MIN TEMP:  12; 6HR MAX TEMP:  21;                                

EAU CLAIRE     NOT AVBL                                               
MENOMONIE      FAIR      13   1  59 W5        30.48R WCI   5          
6HR MIN TEMP:  11; 6HR MAX TEMP:  17;                                

NEW RICHMOND   FAIR      12   4  67 CALM      30.47S                  
6HR MIN TEMP:  12; 6HR MAX TEMP:  19; 6HR PCP:  0.01;                

OSCEOLA        FAIR      14   5  66 CALM      30.50S                  
6HR MIN TEMP:  14; 6HR MAX TEMP:  20;                                

$$
 
WIZ003>005-009-010-017-018-190100-
NORTH CENTRAL WISCONSIN
  
CITY           SKY/WX    TMP DP  RH WIND       PRES   REMARKS
MANITOWISH WTR NOT AVBL                                               
ARBOR VITAE    FAIR      11   4  73 CALM      30.38R                  
6HR MIN TEMP:  11; 6HR MAX TEMP:  19;                                

WOODRUFF       FAIR      11   4  73 CALM      30.38R                  
6HR MIN TEMP:  11; 6HR MAX TEMP:  19;                                

RHINELANDER    FAIR      17   0  47 CALM      30.38R                  
6HR MIN TEMP:  15; 6HR MAX TEMP:  21;                                

EAGLE RIVER    FAIR      10   4  75 CALM      30.37R                  
6HR MIN TEMP:  10; 6HR MAX TEMP:  17;                                

LAND O LAKES   FAIR       7   3  84 CALM      30.38S                  
6HR MIN TEMP:   7; 6HR MAX TEMP:  18;                                

PHILLIPS       FAIR      15   1  52 CALM      30.39R                  
6HR MIN TEMP:  14; 6HR MAX TEMP:  19;                                

TOMAHAWK       FAIR      14   0  52 CALM      30.39R                  
MEDFORD        FAIR      13  -1  51 W5        30.39R WCI   6          
6HR MIN TEMP:  13; 6HR MAX TEMP:  20;                                

MERRILL        FAIR      17   4  56 SW5       30.40R WCI  10          
6HR MIN TEMP:  17; 6HR MAX TEMP:  24;                                

$$
 
WIZ029-030-035-036-043>047-190100-
CENTRAL WISCONSIN
  
CITY           SKY/WX    TMP DP  RH WIND       PRES   REMARKS
WAUSAU         FAIR      15   3  59 CALM      30.40R                  
6HR MIN TEMP:  15; 6HR MAX TEMP:  21;                                

MOSINEE        PTCLDY    14   3  62 SW6       30.42R WCI   5          
MARSHFIELD     FAIR      12  -1  56 NW5       30.41R WCI   4          
6HR MIN TEMP:   9; 6HR MAX TEMP:  19;                                

STEVENS POINT  FAIR      16   2  54 CALM      30.43R                  
WAUPACA        FAIR      21   3  46 W7        30.45R WCI  12          
6HR MIN TEMP:  21; 6HR MAX TEMP:  28;                                

WAUTOMA        FAIR      19   7  59 N3        30.46R                  
6HR MIN TEMP:  19; 6HR MAX TEMP:  35;                                

WISC RAPIDS    FAIR      18   0  45 N3        30.45R                  
6HR MIN TEMP:  17; 6HR MAX TEMP:  23;                                

CAMP DOUGLAS   FAIR      11   3  70 W7        30.45R WCI   0          
6HR MIN TEMP:  11; 6HR MAX TEMP:  24;                                

$$
 
WIZ011>013-019>022-031-037>040-048>050-190100-
NORTHEAST WISCONSIN
  
CITY           SKY/WX    TMP DP  RH WIND       PRES   REMARKS
ANTIGO         FAIR      11  -3  55 CALM      30.39R                  
6HR MIN TEMP:  11; 6HR MAX TEMP:  18;                                

SHAWANO        FAIR      22   4  46 CALM      30.43R                  
6HR MIN TEMP:  22; 6HR MAX TEMP:  41;                                

OCONTO         FAIR      18   7  62 CALM      30.46R                  
STURGEON BAY   NOT AVBL                                               
GREEN BAY      FAIR      17   5  59 CALM      30.45R                  
6HR MIN TEMP:  16; 6HR MAX TEMP:  28;                                

MANITOWOC      FAIR      13   2  61 CALM      30.48R                  
6HR MIN TEMP:  13; 6HR MAX TEMP:  25;                                

APPLETON       PTCLDY    18   1  49 SW5       30.42R WCI  11          
CLINTONVILLE   FAIR      18   5  58 CALM      30.43S                  
6HR MIN TEMP:  18; 6HR MAX TEMP:  25;                                

OSHKOSH        FAIR      13   5  70 S5        30.45R WCI   5          
6HR MIN TEMP:  12; 6HR MAX TEMP:  24; 6HR PCP: TRACE;                

$$
 
WIZ032>034-041-042-053>061-190100-
SOUTHWEST WISCONSIN
  
CITY           SKY/WX    TMP DP  RH WIND       PRES   REMARKS
LA CROSSE      FAIR      10   4  76 NW6       30.48R WCI   0          
6HR MIN TEMP:  10; 6HR MAX TEMP:  24;                                

SPARTA         FAIR      20  10  65 CALM      30.47R                  
VIROQUA        FAIR      15   9  76 CALM      30.43R                  
6HR MIN TEMP:  15; 6HR MAX TEMP:  26;                                

BOSCOBEL       FAIR      21   8  57 CALM      30.48R                  
6HR MIN TEMP:  21; 6HR MAX TEMP:  30;                                

PRAIRIE DU CHI FAIR      19   9  64 CALM      30.49R                  
6HR MIN TEMP:  19; 6HR MAX TEMP:  26; 6HR PCP:  0.02;                

PLATTEVILLE    FAIR      19  12  76 CALM      30.46R                  
$$

WIZ056-057-062-063-064-067-068-190100-
SOUTH CENTRAL WISCONSIN
  
CITY           SKY/WX    TMP DP  RH WIND       PRES   REMARKS
REEDSBURG      FAIR      19   9  63 CALM      30.45R                  
6HR MIN TEMP:  19; 6HR MAX TEMP:  24;                                

BARABOO/DELLS  FAIR      18   6  60 CALM      30.44R                  
6HR MIN TEMP:  18; 6HR MAX TEMP:  27;                                

LONE ROCK      NOT AVBL                                               
MINERAL POINT  FAIR      23  14  68 CALM      30.44R                  
MADISON        FAIR      17   8  67 CALM      30.45R                  
6HR MIN TEMP:  17; 6HR MAX TEMP:  26;                                

MIDDLETON      FAIR      14   8  78 CALM      30.45R                  
WATERTOWN      FAIR      17   8  70 CALM      30.46R                  
6HR MIN TEMP:  17; 6HR MAX TEMP:  23;                                

MONROE         MOCLDY    20  10  65 MISG      30.44R                  
6HR MIN TEMP:  20; 6HR MAX TEMP:  26;                                

JANESVILLE     NOT AVBL                                               
$$
 
WIZ051-052-058>065-066-070>072-190100-
SOUTHEAST WISCONSIN
  
CITY           SKY/WX    TMP DP  RH WIND       PRES   REMARKS
MILWAUKEE      FAIR      24  13  62 N6        30.46R WCI  17          
6HR MIN TEMP:  24; 6HR MAX TEMP:  30; 6HR PCP: TRACE;                

WAUKESHA       CLEAR     18   7  62 NW5       30.47R WCI  11          
MILWAUKEE/TIMM CLEAR     19   7  58 NW8       30.47R WCI   9          
RACINE         CLOUDY    24  15  68 N3        30.48R                  
6HR MIN TEMP:  24; 6HR MAX TEMP:  27; 6HR PCP:  0.02;                

KENOSHA        FAIR      19  10  68 NW3       30.46R                  
6HR MIN TEMP:  19; 6HR MAX TEMP:  29;                                

FOND DU LAC    FAIR      16   6  65 S3        30.46R                  
6HR MIN TEMP:  16; 6HR MAX TEMP:  23;                                

SHEBOYGAN      FAIR       8   1  73 CALM      30.46R                  
6HR MIN TEMP:   8; 6HR MAX TEMP:  23;                                

WEST BEND      FAIR      19   9  63 CALM      30.45R                  
JUNEAU         FAIR      18   9  65 CALM      30.45R                  
6HR MIN TEMP:  18; 6HR MAX TEMP:  21;                                

$$

LSZ147-162-190100-
LAKE SUPERIOR
  
STATION/POSITION TIME  TEMP    WIND        PRES    WAVE
                       AIR SEA DIR/SP/G            HT/PER
                 (UTC) (F)     (DEG/KT/KT) (MB)    (FT/S)
DEVILS ISLAND    2300   14     200/  3/  4 1033.4S
SAXON HARBOR     2340    8        CALM     1031.8S
$$
 
LMZ867-665-643>646-190100-
LAKE MICHIGAN
  
STATION/POSITION TIME  TEMP    WIND        PRES    WAVE
                       AIR SEA DIR/SP/G            HT/PER
                 (UTC) (F)     (DEG/KT/KT) (MB)    (FT/S)
CHAMBERS ISLAND  2340   14      80/  4/  5 1030.8R
NORTHPORT PIER   2340   15      20/  1/  2 1031.2R
KEWAUNEE LAKESHO 2330   20      CALM  /  1 1030.3R
SHEBOYGAN LAKESH 2300   22     340/  7/  9 1032.2R
PORT WASHINGTON  2340   21     340/  3/  5 1032.8R
MILWAUKEE LAKESH 2340   25     360/  4/  7   N/A
KENOSHA   LAKESH 2300   26      10/  9/ 11 1030.8
$$

TC  - TEMPERATURE IN CELSIUS
VSB - VISIBILITY IN STATUTE MILES
WCI - WIND CHILL INDEX
HX  - HEAT INDEX